Wind_Speed
8 8 8 7 6 6 5 5 6 6 6 6 6 6 7 6 6 5 4 4 3 2 1 1 2 3 3 4 5 5 5 5 5 5 6 6 6 6 7 7 7 7 7 7 6 6 6 6 6
10 9 9 8 7 7 6 6 7 7 7 6 6 6 6 5 5 5 5 4 3 2 1 1 2 2 3 4 4 5 5 5 6 6 6 7 7 7 7 8 8 8 8 8 7 7 7 6 6
12 11 10 9 8 8 8 7 7 8 7 6 6 6 6 5 5 5 4 4 3 2 1 1 1 2 3 4 4 5 5 5 6 7 7 7 7 8 8 8 8 8 8 8 8 8 8 7 7
13 12 12 10 10 9 8 8 8 9 8 7 6 7 6 6 5 5 4 4 3 2 1 0 1 2 3 3 4 4 5 6 6 7 7 7 8 8 9 9 9 9 9 9 9 8 8 8 7
15 14 13 12 11 11 10 9 8 9 8 8 7 7 7 6 5 4 4 3 2 1 0 1 1 2 3 3 4 4 5 6 7 7 8 8 8 9 10 10 10 10 10 10 9 9 8 8 8
16 15 14 13 12 12 11 10 10 9 8 8 7 7 7 6 5 5 4 3 2 2 1 0 1 1 2 3 4 4 5 6 7 8 8 9 9 10 10 10 10 10 10 10 10 9 9 8 8
17 16 15 14 13 13 12 11 11 10 9 8 8 8 7 6 6 5 4 3 2 1 0 0 1 1 2 3 4 5 5 6 7 8 8 9 10 10 11 11 10 10 10 10 10 9 9 8 8
19 18 16 16 15 14 13 12 11 10 9 9 8 8 8 7 6 5 4 4 3 2 0 0 1 2 3 4 4 5 6 6 7 8 9 9 10 11 11 11 11 10 10 9 9 9 9 9 8
21 19 17 17 15 13 14 13 12 10 9 9 8 8 7 7 7 6 5 4 3 2 1 1 1 2 3 4 5 5 5 6 7 8 9 10 10 11 11 11 11 11 11 10 10 9 9 9 9
21 19 18 17 16 15 14 14 12 11 10 9 8 8 7 7 7 6 5 4 3 2 1 0 1 2 3 4 5 5 5 6 7 8 9 10 11 11 11 11 11 11 11 11 10 10 9 9 9
21 19 17 16 16 15 14 13 12 11 11 10 9 8 8 8 7 7 6 4 3 3 1 0 1 2 3 4 5 6 6 7 7 8 9 10 11 11 11 11 12 12 12 11 10 9 9 8 8
21 19 17 16 16 16 14 13 12 11 11 10 9 9 8 8 7 6 5 4 3 3 2 0 1 2 3 4 5 6 6 7 7 8 9 10 11 11 12 12 12 13 12 11 10 9 9 8 8
20 19 17 15 15 15 15 14 12 11 10 9 9 9 8 8 7 7 6 4 4 3 2 0 1 2 3 4 5 6 6 7 8 9 10 10 11 11 12 13 13 13 13 12 11 11 10 9 8
19 18 16 15 15 14 14 14 13 12 11 10 9 8 8 8 7 6 5 4 4 3 2 1 1 2 3 4 5 6 6 7 8 9 9 10 11 11 12 13 14 14 13 13 12 11 10 9 8
18 18 17 16 14 14 13 12 13 12 11 11 10 9 8 8 8 6 5 4 4 4 3 1 1 2 3 4 5 6 6 7 8 9 9 10 11 12 13 13 14 14 14 13 12 12 11 10 9
18 17 17 15 14 13 13 12 12 12 11 11 10 10 9 8 7 6 5 4 4 3 3 2 1 2 3 4 5 6 6 7 8 8 9 10 11 12 13 14 14 14 14 13 12 12 11 11 9
17 17 17 15 14 13 13 13 12 12 11 11 10 10 9 8 7 6 5 5 4 3 2 2 1 2 3 4 5 6 6 7 8 8 9 10 11 13 13 14 14 14 14 13 12 12 12 11 10
15 16 16 15 13 12 12 12 12 12 12 11 11 10 9 8 7 7 6 5 4 3 2 1 2 2 3 4 4 5 6 6 7 8 9 10 12 13 13 14 14 14 14 13 13 13 12 12 11
13 13 14 15 13 12 11 11 12 11 10 10 10 10 10 9 8 7 6 6 5 4 2 1 2 2 3 3 4 4 5 6 7 8 9 11 12 13 13 14 14 14 14 14 13 13 13 12 12
12 11 12 14 13 11 10 9 10 10 11 10 10 10 9 9 8 7 6 6 5 4 3 2 2 2 2 3 3 4 5 6 7 9 10 10 12 13 13 14 14 15 14 14 14 13 13 13 12
12 11 11 11 11 9 8 7 8 9 9 10 11 10 10 8 8 7 6 6 5 4 4 3 3 2 3 3 4 4 6 7 8 9 9 10 11 12 13 14 15 14 14 14 14 13 13 13 13
12 11 10 10 10 8 7 6 8 8 9 10 10 9 8 8 7 7 6 6 6 5 4 4 3 3 3 3 4 5 6 7 8 9 10 10 11 12 13 14 15 15 14 14 14 14 13 14 14
12 11 10 9 8 6 5 5 6 7 8 10 10 9 7 7 7 7 6 6 6 6 5 5 4 4 4 4 5 6 7 7 8 9 10 11 11 12 13 14 15 15 15 15 15 14 14 14 15
12 11 9 8 7 5 5 5 6 7 8 9 9 8 8 7 7 7 7 7 7 7 7 6 6 6 6 6 6 7 8 8 9 10 10 11 12 13 14 15 15 16 15 15 15 15 16 16 16
12 12 10 7 5 3 5 5 7 7 8 8 8 8 7 7 7 7 7 7 8 8 8 7 7 7 7 7 8 8 9 9 10 11 11 12 13 14 15 15 15 16 16 16 16 16 17 17 17
11 10 9 7 6 5 4 5 7 7 7 7 8 8 8 8 8 8 8 8 8 8 8 8 8 8 9 9 9 10 10 11 11 12 12 13 14 14 15 16 16 16 16 16 17 18 18 18 17
10 10 9 7 6 5 5 6 7 7 8 8 8 8 8 8 8 8 9 9 9 9 9 9 9 10 10 10 11 11 11 12 12 13 13 14 14 15 15 16 16 17 17 17 18 19 19 18 18
10 10 10 8 7 6 5 6 9 8 8 9 9 9 9 9 9 9 9 10 10 10 10 10 11 11 12 12 12 12 12 12 13 13 14 15 15 15 16 16 17 17 18 18 19 19 19 19 20
11 11 11 11 9 7 7 8 10 9 9 9 9 9 9 10 10 10 10 10 11 11 11 12 12 12 13 13 13 13 13 14 14 15 15 16 16 16 17 17 18 18 19 19 20 21 21 21 21
9 11 12 11 10 10 7 7 10 10 10 10 10 10 10 10 11 11 11 11 12 12 12 12 13 14 14 14 14 14 15 15 16 16 17 17 18 18 18 18 19 19 20 20 21 22 22 22 21
Wind_Direction
221 216 212 210 205 202 201 197 183 173 175 173 171 176 178 179 179 176 170 160 155 147 133 115 58 53 38 20 12 11 7 2 5 8 11 10 7 2 358 357 353 348 343 339 331 325 321 311 303
219 218 215 212 212 206 198 191 187 182 181 179 177 173 175 178 180 182 179 169 160 147 110 83 61 41 19 7 5 7 8 12 15 15 15 13 10 2 356 355 351 347 342 339 334 326 320 313 303
217 217 215 213 215 212 201 193 188 184 184 183 182 181 177 178 178 179 177 170 157 150 143 101 34 10 10 8 10 12 14 18 19 18 13 8 5 1 355 351 348 346 341 336 331 325 318 311 305
215 214 213 211 211 209 204 197 190 185 188 188 188 186 180 177 176 173 170 162 159 151 149 9 355 358 6 11 14 12 10 11 10 11 8 5 3 358 351 347 342 339 335 330 325 320 313 304 299
214 212 211 212 211 207 203 202 195 191 194 192 190 189 184 182 182 181 178 170 178 178 229 322 356 355 358 5 7 7 7 7 7 7 5 2 359 353 348 343 338 335 332 328 323 319 314 303 294
214 212 212 213 213 207 204 204 200 201 202 198 196 194 192 193 193 191 185 177 191 209 235 289 10 0 360 1 5 6 4 3 3 3 2 360 354 349 345 343 338 334 331 328 323 320 314 305 295
213 211 211 211 212 207 202 205 204 206 208 205 203 204 199 203 202 200 198 194 195 199 231 317 22 10 359 360 360 359 2 2 2 2 1 358 355 352 347 345 341 338 334 330 325 319 314 305 297
212 211 210 212 210 207 205 204 206 206 211 210 206 208 205 209 206 206 210 209 201 202 237 70 49 18 3 3 360 355 358 2 4 3 1 358 356 353 349 347 345 343 339 332 327 321 317 310 299
209 211 212 214 212 206 207 206 208 209 211 208 209 208 205 207 208 208 209 206 197 200 215 119 46 18 3 3 2 359 0 3 4 1 359 358 356 353 351 349 349 347 343 336 329 322 317 311 303
209 211 214 215 212 208 209 208 210 210 210 210 210 212 209 211 209 204 204 202 201 205 204 133 22 4 6 5 6 1 357 0 0 358 358 358 356 357 357 355 354 350 346 341 334 328 322 315 306
209 210 214 216 211 211 211 210 210 211 210 210 209 211 214 216 213 208 204 202 203 201 184 109 5 358 7 10 8 3 359 1 359 357 0 0 359 360 1 1 357 352 349 346 342 337 330 321 312
208 209 213 215 212 210 209 212 212 210 213 210 210 212 214 218 216 210 206 199 192 186 172 107 11 13 15 12 10 6 3 0 358 0 1 1 3 4 4 2 359 357 355 353 350 347 339 331 326
206 207 211 214 211 210 208 212 214 216 217 216 212 213 214 218 211 206 205 198 194 192 189 251 356 17 21 13 9 8 6 5 4 1 2 3 3 3 3 3 1 1 359 357 355 354 351 346 340
199 205 207 211 210 209 207 208 210 214 217 220 214 214 217 218 211 203 201 206 207 205 207 219 352 6 20 13 8 6 5 5 4 3 3 4 3 4 3 3 2 1 1 359 358 357 355 354 351
199 203 204 208 205 206 205 208 213 215 220 222 217 215 215 206 201 203 206 212 210 209 216 221 344 2 8 6 4 1 1 1 3 4 5 6 5 4 2 2 1 0 360 359 359 360 0 358 354
199 203 203 205 206 208 208 209 211 213 217 215 212 212 211 210 206 209 211 216 209 212 223 235 300 345 358 2 1 359 358 360 1 3 6 6 4 3 3 3 2 1 2 3 3 3 1 360 357
197 199 202 201 205 203 207 207 208 213 213 209 208 203 206 211 213 212 214 216 217 221 225 242 285 327 349 355 358 358 359 1 0 1 3 4 4 4 3 3 2 3 4 5 5 5 3 1 358
194 197 199 202 202 203 207 207 207 207 205 208 207 205 208 213 212 215 217 217 223 227 237 253 295 321 337 349 355 356 360 360 358 359 3 4 3 3 1 1 2 2 3 3 3 2 1 0 359
198 199 203 204 207 210 211 211 208 211 210 211 212 212 213 214 215 220 222 223 228 232 247 262 299 318 333 345 350 352 353 352 353 357 359 360 359 358 358 358 358 360 1 1 359 359 358 357 355
196 198 197 195 198 200 206 208 210 208 213 216 213 210 211 213 217 220 224 228 230 231 238 252 284 303 318 332 342 344 341 342 348 351 352 354 353 354 355 355 355 355 357 357 356 356 357 356 354
192 190 187 185 190 195 199 204 204 209 212 215 215 214 211 214 218 221 223 228 227 230 238 250 277 292 302 313 322 325 329 335 340 342 346 348 349 351 353 355 355 354 355 355 354 353 353 353 352
188 190 183 179 182 190 202 206 207 212 211 213 218 218 216 219 218 216 220 227 231 234 241 254 268 281 289 299 308 315 322 328 332 336 341 343 345 347 350 352 353 353 352 351 351 352 351 349 347
179 176 174 171 173 188 202 215 221 215 213 214 214 217 220 226 224 219 223 232 237 238 244 252 261 273 284 291 298 308 316 323 328 332 336 339 341 344 347 347 349 349 348 348 348 347 346 343 341
170 167 160 161 174 197 211 217 227 229 215 212 215 222 225 230 228 229 232 236 239 243 248 253 260 269 277 284 292 301 310 317 322 326 330 332 335 338 341 343 345 346 346 345 343 343 341 338 336
168 164 159 165 188 219 225 233 237 236 227 222 221 228 231 229 233 235 236 241 245 247 251 258 261 270 274 278 285 293 302 309 314 318 323 326 328 331 334 337 339 341 341 341 340 338 337 335 333
168 168 169 171 191 212 233 254 254 253 240 237 234 235 237 236 241 241 241 244 246 249 253 259 261 267 272 275 283 290 297 302 309 314 319 322 324 327 330 333 335 337 337 337 337 336 334 333 331
183 181 175 177 182 208 228 257 263 251 245 243 245 246 247 245 243 243 245 246 246 250 254 260 263 268 271 276 282 288 293 299 305 310 314 317 319 322 325 327 329 331 332 334 334 334 333 331 329
200 189 189 198 195 193 210 257 269 255 247 245 247 250 252 254 254 251 251 250 251 255 260 264 267 270 272 276 280 285 290 297 304 308 312 314 316 318 321 323 325 327 328 329 330 330 329 327 325
203 204 204 205 208 214 212 228 251 261 264 256 252 254 257 258 260 255 253 254 259 261 263 266 268 270 272 275 278 283 289 295 300 305 308 310 312 314 317 319 321 323 324 326 327 328 326 325 324
214 212 209 209 207 216 240 255 260 262 264 264 261 260 259 260 258 254 254 257 261 263 264 267 269 271 273 275 278 282 287 293 297 302 305 308 309 310 312 315 317 319 321 323 324 324 324 324 323
Height
5873 5874 5875 5877 5879 5879 5879 5879 5879 5880 5881 5882 5883 5884 5885 5887 5889 5892 5891 5890 5891 5892 5892 5893 5893 5893 5893 5893 5893 5892 5892 5891 5890 5890 5889 5889 5888 5888 5887 5886 5886 5885 5884 5884 5883 5882 5882 5882 5882
5872 5873 5875 5877 5878 5878 5879 5879 5880 5881 5882 5882 5884 5885 5886 5887 5888 5889 5890 5891 5892 5892 5893 5893 5894 5893 5893 5893 5893 5892 5892 5891 5890 5890 5889 5889 5888 5887 5887 5886 5885 5884 5884 5883 5882 5882 5881 5881 5880
5870 5872 5875 5876 5877 5878 5878 5879 5879 5881 5882 5883 5885 5886 5887 5888 5889 5889 5890 5891 5892 5893 5893 5894 5894 5893 5893 5893 5893 5892 5892 5891 5891 5890 5889 5889 5888 5887 5886 5885 5885 5884 5883 5882 5881 5880 5880 5879 5879
5869 5871 5874 5875 5876 5877 5877 5878 5879 5881 5882 5884 5885 5886 5887 5888 5889 5890 5890 5892 5893 5893 5893 5894 5894 5894 5893 5893 5893 5892 5892 5891 5891 5890 5889 5888 5887 5887 5886 5885 5884 5883 5882 5881 5880 5879 5878 5878 5877
5867 5870 5872 5873 5874 5876 5877 5878 5880 5881 5882 5884 5886 5886 5887 5888 5889 5890 5891 5892 5893 5893 5894 5894 5894 5894 5893 5893 5893 5892 5892 5891 5891 5890 5889 5888 5887 5886 5885 5884 5883 5881 5880 5879 5878 5877 5877 5876 5876
5866 5868 5870 5871 5873 5874 5876 5877 5879 5881 5882 5884 5885 5887 5888 5889 5890 5891 5891 5892 5893 5893 5894 5894 5894 5894 5894 5893 5893 5892 5892 5891 5890 5890 5889 5888 5887 5885 5884 5883 5881 5880 5879 5878 5876 5875 5875 5874 5874
5864 5866 5868 5870 5872 5873 5875 5877 5878 5880 5882 5884 5885 5887 5888 5889 5890 5891 5892 5892 5893 5893 5894 5894 5894 5894 5894 5893 5893 5892 5892 5891 5890 5890 5889 5887 5886 5885 5883 5882 5880 5879 5877 5876 5875 5874 5873 5872 5872
5862 5865 5866 5868 5870 5872 5874 5876 5878 5880 5882 5883 5885 5886 5887 5889 5890 5891 5892 5892 5893 5893 5894 5894 5894 5894 5894 5893 5893 5892 5892 5891 5890 5889 5888 5887 5886 5884 5883 5881 5879 5877 5876 5874 5873 5872 5871 5870 5870
5859 5864 5865 5867 5869 5871 5873 5875 5877 5879 5881 5883 5884 5886 5887 5888 5889 5890 5891 5892 5893 5893 5893 5894 5894 5894 5894 5893 5893 5892 5892 5891 5890 5889 5888 5887 5886 5884 5882 5880 5878 5876 5874 5873 5872 5870 5869 5868 5867
5857 5860 5863 5865 5868 5870 5872 5874 5876 5879 5881 5882 5884 5885 5886 5888 5889 5890 5891 5892 5892 5893 5893 5894 5894 5894 5894 5894 5893 5892 5892 5891 5890 5889 5888 5887 5885 5883 5881 5879 5877 5875 5873 5872 5870 5869 5867 5866 5865
5855 5858 5861 5863 5866 5868 5871 5873 5875 5878 5880 5882 5883 5885 5886 5887 5888 5889 5891 5891 5892 5893 5893 5894 5894 5894 5894 5893 5893 5892 5892 5891 5890 5889 5888 5886 5885 5883 5881 5879 5877 5875 5872 5870 5869 5867 5865 5864 5864
5854 5857 5859 5861 5865 5867 5870 5872 5875 5877 5879 5880 5882 5884 5885 5887 5888 5889 5890 5891 5892 5893 5893 5894 5894 5894 5894 5893 5893 5892 5891 5891 5890 5889 5888 5886 5884 5883 5881 5879 5876 5874 5871 5869 5867 5866 5864 5863 5862
5852 5855 5857 5860 5863 5866 5869 5872 5874 5876 5878 5879 5881 5883 5884 5886 5887 5888 5890 5891 5892 5893 5893 5893 5894 5894 5893 5893 5893 5892 5891 5891 5890 5888 5887 5886 5884 5883 5881 5878 5876 5874 5871 5869 5867 5865 5863 5862 5861
5850 5854 5857 5860 5862 5865 5868 5870 5873 5875 5876 5878 5879 5882 5883 5885 5886 5888 5890 5891 5892 5892 5893 5893 5894 5893 5893 5893 5893 5892 5891 5890 5890 5888 5887 5886 5884 5882 5880 5878 5876 5873 5871 5869 5867 5865 5863 5861 5860
5849 5853 5856 5859 5861 5864 5867 5870 5872 5874 5876 5878 5879 5881 5883 5884 5886 5888 5889 5890 5891 5892 5893 5893 5893 5893 5893 5893 5892 5892 5891 5891 5890 5888 5887 5886 5884 5882 5880 5878 5876 5873 5871 5868 5866 5864 5862 5861 5860
5848 5852 5855 5858 5861 5863 5868 5869 5871 5873 5875 5877 5878 5880 5882 5884 5886 5887 5889 5890 5891 5892 5892 5892 5893 5893 5893 5893 5892 5892 5891 5891 5890 5889 5887 5886 5884 5882 5880 5878 5876 5873 5871 5868 5866 5864 5863 5861 5859
5848 5851 5854 5858 5860 5862 5866 5868 5870 5872 5874 5876 5878 5880 5882 5884 5885 5887 5888 5889 5890 5891 5892 5892 5892 5893 5893 5892 5892 5892 5891 5891 5890 5889 5887 5886 5884 5882 5880 5878 5876 5873 5871 5868 5866 5865 5863 5861 5859
5847 5850 5853 5856 5859 5862 5864 5866 5869 5870 5872 5875 5877 5879 5881 5883 5885 5886 5887 5889 5890 5890 5891 5892 5892 5892 5892 5892 5892 5892 5891 5891 5890 5889 5887 5886 5884 5882 5880 5878 5876 5873 5871 5869 5867 5865 5863 5861 5859
5847 5849 5852 5856 5858 5861 5864 5866 5868 5870 5872 5874 5876 5878 5880 5882 5884 5885 5887 5888 5889 5890 5891 5891 5891 5892 5892 5892 5892 5892 5891 5891 5890 5889 5887 5886 5884 5882 5880 5878 5876 5873 5871 5869 5867 5865 5863 5861 5859
5847 5849 5852 5855 5858 5861 5863 5865 5867 5869 5871 5873 5875 5877 5879 5881 5883 5884 5886 5887 5888 5889 5890 5890 5891 5891 5891 5892 5891 5891 5891 5891 5890 5888 5887 5886 5884 5882 5880 5878 5876 5873 5871 5869 5867 5864 5862 5861 5859
5848 5850 5852 5855 5858 5861 5863 5866 5867 5869 5871 5873 5875 5876 5878 5880 5882 5883 5885 5886 5887 5888 5889 5890 5890 5890 5891 5891 5891 5891 5891 5890 5889 5888 5887 5885 5884 5882 5880 5877 5875 5873 5871 5868 5866 5864 5862 5860 5858
5848 5850 5853 5856 5859 5861 5864 5865 5867 5868 5870 5872 5874 5875 5877 5879 5881 5882 5884 5885 5886 5887 5888 5889 5889 5890 5890 5890 5891 5890 5890 5889 5889 5887 5886 5885 5883 5881 5879 5877 5874 5872 5870 5868 5866 5863 5861 5859 5857
5848 5851 5854 5856 5859 5862 5863 5865 5867 5868 5870 5872 5873 5875 5877 5878 5880 5881 5882 5884 5885 5886 5887 5888 5888 5889 5889 5889 5890 5889 5889 5888 5887 5886 5885 5884 5882 5880 5878 5876 5874 5871 5869 5867 5865 5863 5860 5858 5856
5849 5852 5854 5857 5859 5862 5864 5865 5867 5867 5869 5871 5873 5874 5876 5877 5879 5880 5881 5882 5883 5885 5885 5886 5887 5887 5888 5888 5888 5888 5888 5887 5886 5885 5884 5883 5881 5879 5877 5875 5873 5870 5868 5866 5864 5861 5859 5857 5854
5850 5853 5856 5858 5860 5863 5864 5865 5867 5867 5868 5870 5872 5873 5875 5876 5877 5879 5880 5881 5882 5883 5884 5885 5885 5886 5887 5887 5887 5887 5886 5886 5885 5884 5883 5881 5880 5878 5876 5874 5871 5869 5867 5864 5862 5860 5857 5855 5852
5851 5853 5857 5859 5861 5863 5864 5865 5866 5866 5868 5869 5871 5872 5873 5875 5876 5877 5878 5879 5880 5881 5882 5883 5884 5884 5885 5885 5885 5885 5885 5884 5883 5882 5881 5879 5878 5876 5874 5872 5869 5867 5865 5862 5860 5857 5855 5852 5849
5851 5853 5856 5858 5860 5862 5863 5865 5865 5866 5867 5868 5869 5871 5872 5873 5874 5875 5876 5877 5878 5879 5880 5881 5882 5882 5883 5883 5883 5883 5882 5882 5881 5880 5878 5877 5875 5873 5872 5870 5867 5865 5863 5860 5858 5855 5852 5849 5846
5851 5853 5856 5858 5859 5861 5863 5864 5865 5865 5866 5867 5868 5869 5870 5871 5872 5873 5874 5875 5876 5877 5878 5878 5879 5880 5880 5881 5881 5880 5880 5879 5878 5877 5876 5874 5873 5871 5869 5867 5865 5862 5860 5858 5855 5852 5849 5846 5843
5852 5853 5855 5856 5858 5860 5861 5864 5863 5864 5865 5866 5867 5867 5868 5869 5870 5871 5872 5873 5874 5875 5875 5876 5876 5877 5877 5877 5878 5877 5877 5876 5875 5874 5873 5871 5870 5868 5866 5864 5862 5860 5857 5855 5852 5849 5845 5842 5839
5850 5852 5854 5856 5857 5859 5860 5863 5861 5862 5863 5864 5865 5865 5866 5867 5868 5868 5869 5870 5871 5872 5872 5873 5873 5873 5874 5874 5874 5874 5874 5873 5872 5871 5869 5868 5866 5864 5862 5860 5858 5856 5854 5851 5848 5845 5842 5839 5835